Regional Weather Roundup
Issued by NWS Little Rock, AR

Home | Current Version | Previous Version | Graphics & Text | Print | Product List | Glossary On
Versions: 1 2 3 4 5 6 7 8 9 10 11 12 13 14 15 16 17 18 19 20 21 22 23 24 25 26 27
000
ASUS44 KLZK 300805
RWRLZK

WEATHER ROUNDUP FOR ARKANSAS
NATIONAL WEATHER SERVICE LITTLE ROCK AR
300 AM CDT SAT JUL 30 2016

NOTE: "FAIR" INDICATES FEW OR NO CLOUDS BELOW 12,000 FEET WITH NO
SIGNIFICANT WEATHER AND/OR OBSTRUCTIONS TO VISIBILITY.

ARZ001-003-010-029-300900-
NORTHWEST ARKANSAS

CITY           SKY/WX    TMP DP  RH WIND       PRES   REMARKS
FAYETTEVILLE   CLEAR     70  70 100 SW3       30.00S
FORT SMITH     PTCLDY    73  70  90 S5        29.96S
HARRISON       CLOUDY    68  67  96 CALM      30.00F
BENTONVILLE    CLEAR     72  66  83 S5        30.01S
ROGERS         CLEAR     72  70  93 SW5       30.01S
SILOAM SPGS    CLEAR     70  63  78 CALM      30.01S
HIGHFILL       CLEAR     72  71  97 CALM      30.00S
$$

ARZ004-005-016-300900-
NORTH CENTRAL ARKANSAS

CITY           SKY/WX    TMP DP  RH WIND       PRES   REMARKS
BATESVILLE     PTCLDY    70  68  94 CALM      29.97S
FLIPPIN        CLOUDY    72  68  88 CALM      29.96S VSB 1/4
MTN HOME       PTCLDY    70  69  97 CALM      29.98F
$$

ARZ040-041-300900-
WEST CENTRAL ARKANSAS

CITY           SKY/WX    TMP DP  RH WIND       PRES   REMARKS
MENA             N/A    N/A N/A N/A MISG        N/A
MOUNT IDA      PTCLDY    72  70  93 CALM      29.96F
$$

ARZ009-017-025-026-028-300900-
NORTHEAST ARKANSAS

CITY           SKY/WX    TMP DP  RH WIND       PRES   REMARKS
CORNING          N/A     72  72 100 W6        29.96S VSB 3/4
JONESBORO      PTCLDY    72  70  93 CALM      29.96S
NEWPORT        FOG       72  72 100 CALM      29.97S VSB 1
WALNUT RIDGE   PTCLDY    72  68  88 NW3       29.95S
BLYTHEVILLE    CLOUDY    73  71  93 VRB3      29.96S FOG
$$

ARZ022-023-033-042-044-300900-
CENTRAL ARKANSAS

CITY           SKY/WX    TMP DP  RH WIND       PRES   REMARKS
LITTLE ROCK    CLOUDY    75  71  87 SW5       29.95F
N LITTLE ROCK    N/A     73  71  95 CALM      29.93S
JACKSONVILLE   CLOUDY    74  74  99 NW2       29.95S
SEARCY         CLOUDY    72  72 100 CALM      30.08F
HOT SPRINGS    CLOUDY    72  70  93 CALM      29.98F
RUSSELLVILLE   PTCLDY    73  73 100 CALM      29.95F
$$

ARZ036-300900-
EAST ARKANSAS

CITY           SKY/WX    TMP DP  RH WIND       PRES   REMARKS
WEST MEMPHIS   CLOUDY    72  71  97 CALM      29.95F
$$

ARZ050-053-066-070-073-300900-
SOUTHWEST ARKANSAS

CITY           SKY/WX    TMP DP  RH WIND       PRES   REMARKS
ARKADELPHIA    FAIR      71  71 100 W3        29.97F
CAMDEN         CLOUDY    72  68  88 SE3       29.97S
TEXARKANA      CLOUDY    72  71  97 CALM      29.98F
EL DORADO      CLEAR     73  72  96 NW7       29.97R
DE QUEEN       MOCLDY    71  71 100 CALM      29.97F
$$

ARZ056-057-069-300900-
SOUTHEAST ARKANSAS

CITY           SKY/WX    TMP DP  RH WIND       PRES   REMARKS
PINE BLUFF     PTCLDY    73  72  96 CALM      29.96F
STUTTGART      CLOUDY    73  70  88 S7        29.95F
MONTICELLO     PTCLDY    76  73  91 W5        29.95F

$$






USA.gov is the U.S. government's official web portal to all federal, state and local government web resources and services.